Temperature
12 12 13 13 11 10 11 12 13 14 16 18 19 20 19 19 20 20 20 20 20 20 19 18 17 17 17 18 17 17 17 17 16 16 16 16 17 17 17 17 17 17 16 16 16 16 16 16 16
12 12 12 12 10 10 10 11 13 14 16 18 19 19 19 19 19 19 20 20 19 19 19 18 17 17 17 17 17 17 17 17 16 16 16 16 16 16 16 17 17 16 16 16 16 16 16 16 16
11 12 12 9 9 9 11 13 13 15 17 17 18 19 19 19 19 19 20 20 19 19 18 18 17 17 17 17 17 17 16 16 16 16 16 16 16 16 16 16 17 16 16 16 16 16 16 16 16
11 11 11 9 9 10 11 12 13 14 16 17 17 17 18 18 18 19 19 19 19 18 18 18 17 17 17 17 17 16 16 16 16 16 16 16 16 16 16 16 17 17 17 17 16 16 16 16 16
11 10 8 8 9 10 11 13 13 13 14 16 17 16 18 18 18 18 18 19 19 18 18 17 17 17 17 16 16 16 16 16 16 16 16 16 16 16 16 17 17 17 17 17 17 16 16 16 15
10 8 8 8 9 10 11 14 14 13 14 15 16 16 17 17 18 18 18 18 18 18 18 17 17 17 16 16 16 16 16 16 16 15 15 16 16 16 16 17 17 17 17 17 17 16 16 16 15
9 7 7 8 9 10 12 14 13 12 13 14 16 16 17 17 17 17 17 17 17 17 17 17 16 16 16 16 16 16 16 16 16 15 15 15 16 16 16 17 17 17 17 17 17 16 16 16 15
9 7 7 8 9 10 12 13 13 13 13 15 15 15 16 16 16 16 16 16 16 16 16 16 16 16 16 16 16 16 15 15 15 15 15 15 15 16 16 17 17 17 17 17 16 16 16 16 15
9 6 6 8 9 10 11 11 12 12 13 13 14 14 14 15 15 16 16 16 16 16 16 16 16 16 15 15 15 15 15 15 15 15 15 15 15 16 16 16 17 17 17 17 16 16 16 16 15
8 5 6 8 9 9 10 10 11 11 11 12 13 14 14 14 14 15 15 15 15 15 15 15 15 15 15 15 15 15 15 15 15 15 15 15 15 15 16 16 16 16 16 16 16 16 16 16 15
7 6 7 9 9 9 9 10 10 10 10 11 12 12 13 13 14 14 14 15 15 15 15 15 15 15 15 15 15 15 15 15 14 15 15 15 15 15 16 16 16 16 16 16 16 16 16 15 15
7 7 8 9 9 9 9 9 10 10 10 11 11 12 12 13 13 13 14 14 15 15 15 15 15 15 14 14 14 14 14 14 14 14 14 15 15 15 15 16 16 16 16 16 16 16 16 15 15
7 7 8 8 8 8 9 9 9 9 10 11 11 11 12 12 13 13 13 14 14 14 14 15 14 14 14 14 14 14 14 14 14 14 14 14 15 15 15 16 16 16 16 16 16 16 16 15 15
7 7 7 8 8 8 8 8 8 9 10 11 11 11 11 12 12 13 13 13 14 14 14 14 14 14 14 14 14 14 14 14 14 14 14 14 15 15 15 15 16 16 16 16 16 16 15 15 15
7 6 6 7 8 8 8 7 8 10 10 10 10 11 11 11 12 12 13 13 13 14 14 14 13 13 13 13 14 14 14 14 14 14 14 14 14 15 15 15 16 16 16 16 15 15 15 15 14
6 5 5 7 8 8 7 6 8 10 10 10 10 11 11 11 12 12 12 13 13 13 13 13 13 13 13 13 13 13 13 13 14 14 14 14 14 14 15 15 16 16 16 15 15 15 15 15 14
5 4 5 6 8 8 7 7 8 10 9 9 10 10 10 11 11 12 12 12 13 13 13 13 13 13 13 13 13 13 13 13 13 13 13 13 14 14 14 15 15 15 15 15 15 15 15 14 14
4 4 5 6 7 7 7 7 8 9 9 9 9 10 10 10 11 12 12 12 12 13 13 13 13 13 13 12 12 12 12 13 13 13 13 13 14 14 14 14 15 15 15 15 15 15 14 14 14
5 5 5 6 7 7 7 7 8 8 8 8 8 9 9 10 11 11 11 12 12 12 12 12 12 12 12 12 12 12 12 12 13 13 13 13 13 13 13 14 14 14 14 15 15 14 14 14 13
5 5 5 6 7 8 7 7 8 8 8 8 8 9 9 10 10 10 11 11 12 12 12 12 12 12 12 12 12 12 12 12 12 12 12 12 13 13 13 13 13 14 14 14 14 14 14 13 13
6 5 5 6 7 7 7 7 7 8 8 8 8 8 8 9 9 10 10 11 11 11 11 12 11 11 12 12 12 12 12 12 12 12 12 12 12 12 13 13 13 13 14 14 14 14 14 13 13
6 7 7 7 6 6 6 6 7 7 7 8 7 7 8 8 9 9 10 10 11 11 11 11 11 11 11 11 11 11 11 11 12 12 12 12 12 12 12 13 13 13 13 14 13 13 13 13 13
6 7 7 7 6 6 6 6 6 7 7 7 7 7 7 8 8 8 9 9 10 10 10 11 11 11 11 11 11 11 11 11 11 11 11 11 11 12 12 12 12 12 13 13 13 13 13 13 13
7 7 7 6 6 6 6 6 6 6 6 6 6 6 6 7 7 8 8 9 9 9 10 10 10 10 10 10 11 11 11 11 11 11 11 11 11 11 11 11 12 12 12 12 12 12 13 12 12
7 6 6 6 6 6 6 6 6 6 6 6 6 5 5 6 6 7 8 8 8 9 9 9 10 10 10 10 10 10 10 10 11 11 11 11 11 11 11 11 11 11 12 12 12 12 12 12 12
7 6 6 7 7 7 7 6 6 6 6 5 5 5 5 5 6 6 6 7 7 8 8 9 9 9 10 10 10 10 10 10 10 10 10 10 10 11 11 11 11 11 11 11 11 11 12 11 11
7 7 7 7 7 6 6 6 6 6 6 5 5 5 4 4 5 5 6 6 7 7 8 8 8 9 9 9 9 9 9 10 10 10 10 10 10 10 10 11 11 11 11 11 11 11 11 11 11
7 7 6 7 7 7 7 6 6 6 5 5 5 4 4 4 4 5 5 6 6 7 7 8 8 8 8 8 9 9 9 9 9 9 9 10 10 10 10 10 10 10 10 10 10 10 10 10 10
7 7 7 7 7 7 7 6 6 5 5 5 4 4 4 4 4 4 4 5 6 6 7 7 8 8 8 8 8 8 8 8 9 9 9 9 9 9 9 9 10 10 10 10 10 10 10 10 10
8 8 7 7 6 6 6 6 6 5 5 5 4 4 4 4 4 4 5 5 6 6 6 7 7 7 7 7 8 8 8 8 8 8 8 9 9 9 9 9 9 9 9 9 9 9 9 9 9
Wind_Speed
11 10 2 4 4 1 5 7 5 4 5 5 4 4 5 6 5 5 1 5 11 16 18 21 20 19 19 19 19 19 19 19 19 19 19 19 20 20 20 19 19 19 18 18 18 18 18 17 17
8 4 4 4 3 5 6 7 10 12 8 7 8 5 4 4 2 1 2 5 14 16 17 19 20 19 18 17 18 18 19 19 19 20 20 20 21 21 20 20 19 19 18 18 18 17 17 16 15
6 2 4 4 5 7 7 5 7 8 9 7 6 5 3 3 1 2 3 9 13 13 16 19 20 19 17 17 17 17 18 18 19 20 21 21 21 21 21 20 20 19 18 18 18 17 16 15 14
3 4 4 2 9 6 6 6 5 8 8 6 4 7 4 2 2 2 5 11 14 12 14 19 21 19 18 17 16 17 18 18 19 20 21 21 21 22 21 21 20 19 19 18 17 16 15 13 12
4 4 2 4 7 5 6 9 10 10 8 7 6 6 6 5 3 4 7 10 13 12 13 18 22 21 19 17 16 17 18 18 19 20 21 22 22 22 22 21 21 20 19 18 17 16 14 12 11
4 3 3 6 7 5 5 7 9 10 9 8 6 5 5 4 4 3 4 7 9 11 10 16 21 20 19 18 17 17 18 19 19 20 22 23 23 23 22 22 21 20 19 18 17 15 14 12 10
4 3 4 5 4 5 6 5 5 7 9 8 5 5 4 3 3 2 3 3 5 8 9 10 15 18 18 17 17 16 18 19 20 21 22 22 23 23 23 22 21 20 19 18 17 15 13 11 9
4 3 3 4 4 5 4 5 4 5 8 7 3 3 4 4 3 3 4 4 3 4 7 7 9 12 13 14 16 16 17 18 20 21 21 22 22 23 22 21 20 20 19 18 16 15 13 11 9
3 2 5 4 4 4 5 7 7 6 5 5 3 3 5 5 3 4 3 2 2 3 4 6 6 7 9 11 14 15 15 18 19 20 21 21 19 19 19 19 20 20 19 17 16 15 13 11 8
4 4 7 5 3 5 8 8 9 7 8 6 7 7 6 6 5 4 2 1 3 4 5 6 8 7 7 9 10 11 12 14 15 16 18 17 16 16 17 19 20 19 18 17 16 15 13 10 7
5 6 5 7 7 7 9 10 7 7 10 7 9 10 8 7 6 5 4 3 4 4 5 6 8 7 7 5 7 7 9 10 13 16 17 16 14 14 13 14 15 16 16 13 13 12 10 9 8
4 6 7 7 8 9 10 8 9 10 12 10 10 10 8 9 8 7 6 5 4 4 5 5 6 7 7 6 6 6 7 8 9 14 17 15 9 8 10 9 11 12 12 11 10 9 9 9 9
5 6 8 10 11 11 13 12 11 14 14 12 11 11 11 10 9 8 6 5 5 5 5 5 6 7 8 6 6 6 7 8 11 14 17 16 9 9 8 8 10 11 11 10 8 7 7 7 8
4 7 9 11 13 11 14 16 11 15 12 13 13 13 12 12 10 8 7 6 6 6 6 6 7 8 8 7 7 7 6 8 9 11 15 18 14 10 9 8 8 9 11 11 10 8 6 5 5
5 7 10 9 10 7 7 12 13 16 12 14 15 14 13 12 10 10 8 8 7 7 6 7 7 8 9 8 8 7 6 7 7 10 15 17 16 14 11 9 9 9 12 11 8 7 6 4 4
4 4 6 6 5 5 5 13 13 10 10 13 13 12 11 11 11 10 9 8 7 7 7 8 7 8 9 9 8 6 7 8 8 10 13 16 17 17 11 9 9 11 12 8 6 6 5 4 4
2 4 6 8 5 3 5 12 12 9 9 12 11 10 10 10 10 9 8 8 7 8 7 7 7 8 8 8 7 7 7 8 8 10 11 14 17 18 12 9 8 11 8 6 8 5 5 5 5
4 5 6 7 6 7 10 15 15 10 9 11 10 9 9 9 9 7 6 6 6 6 6 6 6 6 6 5 5 5 6 7 7 8 9 14 15 16 12 8 9 10 8 7 7 6 4 4 5
6 8 13 13 10 8 11 15 15 11 9 8 8 7 8 8 7 4 3 3 4 5 6 7 7 6 5 4 5 5 6 6 7 7 8 11 12 14 11 9 9 9 9 9 8 5 5 4 4
10 11 12 12 7 7 9 13 11 9 8 7 7 6 6 5 4 2 1 1 3 5 6 6 6 6 6 5 4 3 4 4 6 6 7 9 9 10 10 10 9 9 7 8 8 6 5 4 4
10 10 9 9 10 6 6 7 6 6 5 3 3 3 3 3 2 2 1 0 2 4 4 4 4 4 6 5 4 4 3 3 5 6 7 7 8 8 8 9 8 8 8 8 8 7 8 5 4
8 7 9 9 6 4 3 5 6 8 7 7 7 6 5 4 3 3 3 2 1 1 2 3 2 2 3 4 5 6 5 5 5 6 6 6 6 7 7 8 8 8 7 7 7 7 5 6 5
6 4 6 6 5 5 2 2 6 8 8 10 9 8 7 6 4 4 5 4 4 3 2 2 1 1 1 3 5 5 4 3 4 5 7 6 6 6 6 7 7 8 7 8 7 7 6 5 6
4 3 4 3 1 2 2 1 4 7 9 10 9 10 10 8 8 9 9 9 9 9 7 4 3 2 1 0 2 3 4 4 5 6 7 6 4 4 6 6 6 7 6 7 7 7 8 7 6
1 0 2 2 1 1 2 1 3 7 8 8 9 11 11 11 12 12 13 12 11 11 9 8 7 5 3 3 2 2 3 3 4 5 6 6 4 3 5 5 5 5 6 7 7 7 7 7 8
2 2 2 0 0 1 3 3 4 7 7 8 9 10 12 13 13 14 13 12 12 12 11 10 10 9 9 7 6 5 4 3 2 2 3 3 3 3 4 5 5 5 5 6 6 6 6 6 7
1 2 3 1 0 1 2 2 2 6 8 10 11 12 12 12 13 13 13 13 13 13 13 12 12 12 11 10 9 8 8 6 4 4 3 2 2 1 2 3 3 4 5 5 5 5 6 6 7
3 2 1 1 0 1 2 3 4 6 6 8 9 10 10 11 11 12 12 12 12 12 13 14 14 13 12 12 11 9 9 8 6 5 5 3 2 2 1 1 2 3 4 4 5 5 6 7 7
1 1 1 1 1 2 1 2 3 2 4 6 7 8 9 10 10 10 10 11 11 12 13 13 13 14 13 12 11 11 10 10 9 7 7 5 3 2 0 1 2 3 4 4 5 6 6 8 7
2 2 1 1 1 2 3 0 3 3 4 6 6 7 8 8 8 9 10 11 11 12 12 12 12 12 12 11 11 11 11 11 10 10 9 8 6 5 3 2 1 3 3 4 5 6 7 7 8
Wind_Direction
338 332 35 56 67 163 233 236 244 276 257 227 255 261 239 228 224 238 292 143 142 152 161 167 169 168 165 162 161 160 161 161 161 158 155 153 149 146 145 144 141 139 135 131 127 124 120 119 117
341 341 57 73 137 207 244 231 235 251 257 309 306 275 278 255 228 148 130 155 149 154 160 165 168 168 166 165 164 164 166 167 165 164 160 158 154 151 149 147 144 141 138 133 129 127 125 125 123
334 9 86 114 186 200 219 230 233 273 292 300 295 289 263 246 230 186 194 150 148 154 160 164 167 169 169 168 168 169 171 171 170 167 164 162 159 155 153 150 146 142 137 134 131 131 131 129 126
30 44 62 167 229 223 229 280 315 318 317 307 331 309 297 292 257 202 147 145 150 156 160 165 166 168 170 171 171 173 174 175 174 170 166 164 162 159 154 150 146 142 138 137 135 135 135 133 129
61 80 106 241 241 248 271 295 308 306 297 302 320 290 286 317 10 93 133 147 154 159 164 168 168 169 171 173 174 176 177 178 176 173 169 166 164 160 154 150 147 145 143 142 141 140 140 138 131
61 83 177 240 246 260 264 272 291 291 290 300 300 285 277 331 33 70 128 150 159 161 164 170 171 171 173 174 176 179 180 180 178 175 171 167 164 160 155 153 151 150 148 147 146 145 146 144 137
109 125 214 240 262 270 264 281 276 287 295 289 272 269 278 330 352 41 81 113 152 159 161 168 172 172 174 174 176 180 181 180 177 175 171 167 163 160 158 156 155 154 153 152 151 151 152 153 147
129 126 237 243 245 256 288 319 310 308 286 289 305 275 288 307 337 39 67 77 112 159 164 166 166 171 173 175 176 179 180 178 175 172 168 163 161 158 159 158 158 157 157 156 155 156 158 160 159
99 131 225 228 240 266 334 331 314 299 294 307 318 305 307 327 350 33 41 54 108 167 178 171 166 165 169 173 178 177 176 176 173 169 163 158 159 157 159 160 161 160 159 160 161 162 164 167 172
128 201 229 237 270 293 310 306 305 315 311 305 308 308 326 340 347 348 342 250 195 196 194 181 168 170 171 178 176 173 174 173 169 166 162 159 157 158 160 162 161 161 161 163 166 167 168 172 183
184 216 242 259 274 288 292 291 287 285 280 275 285 300 311 316 319 312 287 255 229 208 199 194 177 171 172 174 171 170 168 169 168 166 162 159 155 156 158 161 161 161 162 163 167 167 174 183 194
243 251 258 272 285 285 280 278 277 259 258 263 265 275 283 288 286 282 273 259 232 216 203 199 184 173 175 175 175 174 172 174 174 172 167 162 160 160 164 167 167 167 168 167 169 174 185 196 208
252 271 274 277 282 276 277 268 265 264 265 269 271 272 269 269 268 263 263 249 231 222 220 191 195 189 182 178 184 182 181 182 179 177 174 170 168 169 171 174 175 175 174 175 177 183 191 203 216
268 283 288 281 276 273 268 270 261 261 266 271 270 268 263 260 259 259 256 245 230 223 218 203 198 195 190 185 190 187 184 182 184 183 180 176 174 173 175 177 180 182 184 186 186 188 192 204 208
300 303 299 274 261 255 262 272 249 257 262 264 265 264 262 257 255 249 243 237 225 219 210 202 195 196 192 193 196 193 182 183 186 188 184 181 177 176 176 179 184 187 188 187 186 191 195 202 206
308 300 293 282 256 245 222 267 267 264 258 259 258 259 258 257 252 247 237 232 221 207 203 203 197 194 196 193 195 191 188 187 190 187 188 186 181 178 176 180 187 187 185 184 183 184 187 203 198
295 282 276 292 266 253 233 271 286 286 264 261 261 258 258 262 260 252 241 224 215 204 198 198 194 189 196 193 192 190 188 189 189 186 187 189 184 181 179 183 186 183 181 184 187 181 177 185 184
251 265 276 283 289 294 277 275 289 294 274 265 264 261 262 262 259 256 247 222 208 200 191 192 188 190 185 179 185 186 188 193 190 189 190 187 186 184 181 182 183 180 180 185 185 176 174 172 168
260 274 281 281 282 284 275 283 291 294 287 277 269 267 267 268 268 255 244 218 195 195 191 188 189 187 172 173 184 184 193 197 193 191 189 187 185 183 180 182 181 180 185 187 180 167 169 169 151
257 273 280 289 289 289 282 284 289 296 288 272 270 270 271 285 298 291 280 238 189 190 192 185 189 190 183 187 189 185 184 192 193 190 189 189 184 182 183 179 183 183 181 182 181 167 165 171 166
257 254 264 278 306 290 298 300 312 321 325 329 331 315 312 291 299 320 312 228 163 180 185 176 180 191 193 187 179 178 181 175 190 187 189 194 188 182 181 180 181 180 181 189 192 183 175 179 187
265 247 257 278 304 301 312 304 323 336 350 10 5 6 1 354 5 16 24 53 97 146 144 140 154 197 206 185 181 179 192 188 192 182 180 184 187 185 183 181 182 181 183 188 194 190 183 173 186
243 272 274 276 281 288 283 259 318 346 357 -0 6 14 11 17 34 47 41 49 57 52 65 94 120 155 221 196 180 176 182 180 165 163 166 175 181 184 182 184 183 184 188 190 188 186 186 186 188
250 290 284 258 243 298 314 229 341 357 346 350 8 19 23 35 45 48 45 49 50 46 43 53 75 62 42 76 161 164 170 159 154 166 173 177 179 185 183 185 186 187 190 191 191 195 195 195 193
168 13 359 3 5 309 330 63 354 346 350 0 17 25 29 40 45 45 44 46 46 44 39 43 58 55 52 65 78 100 132 135 143 161 169 167 173 184 185 184 190 191 195 195 192 197 199 198 198
240 180 182 243 292 330 6 27 346 347 9 28 38 41 43 44 44 45 42 43 44 42 39 43 49 48 46 48 53 55 70 93 89 93 130 148 162 178 186 184 188 194 195 195 194 198 200 199 204
236 223 207 191 167 57 14 3 347 7 33 41 45 46 45 46 46 44 41 41 41 39 40 42 45 47 45 43 45 45 44 51 55 58 78 106 112 127 158 184 191 193 200 202 196 205 205 204 209
225 238 155 173 131 79 30 7 349 355 24 43 46 48 46 48 48 45 43 42 42 41 42 42 42 43 41 40 40 41 40 39 42 49 47 52 58 66 117 200 205 204 211 209 208 213 211 208 209
288 301 255 211 151 136 107 353 345 41 57 64 57 53 51 49 46 44 42 41 42 42 41 40 38 38 36 34 35 36 36 34 36 37 30 26 29 32 1 239 227 221 219 217 219 221 215 216 216
227 271 232 153 40 87 121 41 22 91 83 83 72 60 55 53 47 44 42 42 41 40 39 39 36 36 32 31 33 33 32 32 32 28 22 18 17 11 357 331 279 253 241 230 227 228 221 217 217
Height
1506 1508 1510 1513 1517 1522 1521 1514 1506 1503 1500 1497 1496 1496 1494 1494 1495 1496 1488 1485 1486 1487 1490 1493 1496 1499 1501 1503 1505 1506 1508 1510 1513 1515 1518 1520 1522 1524 1526 1528 1529 1531 1533 1535 1536 1538 1539 1540 1541
1506 1508 1511 1512 1519 1524 1521 1509 1504 1499 1497 1496 1495 1493 1491 1490 1489 1487 1486 1485 1487 1488 1490 1492 1496 1499 1501 1503 1505 1506 1508 1510 1512 1515 1517 1520 1522 1524 1526 1528 1530 1532 1534 1535 1537 1539 1540 1542 1542
1505 1507 1510 1513 1517 1518 1513 1502 1500 1497 1497 1497 1495 1492 1490 1488 1487 1486 1486 1486 1487 1489 1490 1492 1496 1499 1501 1503 1504 1506 1507 1509 1512 1514 1517 1519 1522 1523 1526 1528 1530 1532 1534 1536 1538 1540 1541 1543 1544
1506 1509 1510 1515 1512 1509 1503 1499 1499 1498 1496 1495 1494 1492 1489 1488 1487 1486 1486 1486 1487 1488 1490 1492 1495 1498 1500 1502 1504 1505 1507 1509 1511 1514 1516 1519 1521 1523 1525 1527 1530 1532 1534 1537 1539 1540 1542 1544 1545
1506 1508 1513 1514 1510 1505 1500 1498 1497 1497 1497 1494 1494 1491 1488 1487 1486 1485 1486 1486 1487 1488 1490 1492 1494 1497 1499 1501 1503 1505 1506 1508 1511 1513 1516 1518 1521 1523 1525 1527 1530 1532 1535 1537 1539 1541 1543 1544 1545
1507 1508 1515 1513 1507 1502 1499 1498 1498 1496 1494 1493 1493 1490 1487 1487 1485 1485 1485 1486 1487 1488 1489 1491 1493 1496 1498 1500 1502 1504 1506 1508 1510 1513 1515 1517 1520 1522 1524 1527 1529 1532 1534 1537 1539 1541 1543 1545 1546
1507 1510 1512 1509 1505 1502 1499 1497 1497 1495 1493 1492 1491 1489 1486 1486 1486 1485 1486 1486 1487 1488 1489 1490 1492 1494 1497 1498 1500 1502 1505 1507 1509 1512 1514 1517 1519 1521 1524 1526 1529 1532 1534 1537 1539 1541 1543 1545 1546
1505 1509 1509 1507 1503 1501 1497 1496 1495 1495 1492 1491 1490 1488 1486 1486 1485 1485 1485 1485 1486 1487 1488 1489 1490 1492 1495 1497 1499 1501 1503 1505 1508 1511 1513 1516 1518 1521 1523 1526 1529 1531 1534 1537 1539 1541 1543 1545 1546
1505 1511 1509 1504 1501 1498 1496 1495 1494 1492 1491 1489 1488 1488 1486 1485 1484 1484 1484 1484 1485 1485 1486 1487 1489 1490 1493 1495 1497 1499 1502 1504 1506 1509 1512 1515 1517 1520 1522 1525 1528 1531 1533 1536 1539 1541 1543 1544 1546
1504 1509 1504 1499 1498 1497 1495 1495 1493 1490 1488 1486 1485 1484 1484 1483 1482 1482 1482 1482 1482 1483 1484 1485 1486 1488 1490 1493 1495 1497 1500 1502 1505 1507 1510 1513 1515 1518 1521 1524 1527 1530 1533 1535 1538 1540 1542 1544 1545
1502 1502 1499 1497 1496 1496 1494 1492 1491 1489 1486 1484 1483 1481 1480 1480 1479 1479 1479 1479 1480 1480 1481 1482 1483 1485 1487 1489 1492 1494 1497 1499 1502 1505 1508 1511 1514 1516 1519 1522 1525 1528 1531 1534 1536 1539 1541 1543 1544
1500 1498 1497 1495 1494 1493 1492 1490 1487 1485 1482 1481 1480 1478 1477 1476 1476 1476 1476 1476 1477 1477 1478 1478 1480 1482 1484 1487 1489 1491 1494 1496 1499 1502 1505 1508 1511 1514 1517 1520 1523 1526 1529 1532 1535 1537 1539 1541 1543
1498 1496 1494 1493 1491 1490 1488 1485 1483 1478 1476 1476 1475 1474 1473 1472 1472 1472 1472 1472 1473 1474 1474 1475 1477 1479 1481 1483 1486 1488 1490 1493 1496 1499 1502 1505 1508 1511 1514 1518 1521 1524 1527 1530 1533 1535 1537 1539 1541
1496 1494 1492 1490 1487 1485 1483 1479 1479 1471 1472 1471 1469 1468 1467 1467 1467 1467 1468 1468 1469 1469 1471 1472 1473 1475 1477 1480 1482 1484 1486 1489 1492 1495 1498 1502 1505 1508 1512 1515 1518 1522 1525 1528 1531 1533 1535 1537 1539
1495 1494 1490 1485 1483 1480 1480 1475 1471 1467 1467 1466 1464 1463 1462 1461 1461 1462 1463 1464 1465 1465 1467 1468 1470 1472 1474 1476 1479 1481 1482 1485 1488 1492 1495 1498 1502 1505 1509 1512 1516 1519 1523 1526 1529 1531 1533 1535 1536
1495 1495 1494 1484 1480 1477 1481 1474 1464 1463 1463 1460 1458 1457 1456 1455 1456 1456 1458 1459 1460 1461 1462 1464 1466 1468 1470 1472 1475 1477 1479 1481 1484 1488 1492 1495 1498 1502 1505 1509 1513 1516 1520 1523 1525 1528 1530 1532 1534
1497 1498 1493 1485 1477 1476 1477 1470 1461 1460 1458 1456 1454 1452 1451 1450 1450 1451 1452 1453 1455 1456 1458 1459 1461 1463 1465 1468 1470 1472 1474 1477 1480 1483 1488 1492 1495 1498 1501 1506 1510 1513 1516 1519 1522 1524 1527 1528 1530
1498 1496 1491 1486 1477 1475 1473 1466 1459 1456 1455 1452 1449 1448 1447 1445 1444 1445 1447 1448 1450 1451 1453 1455 1457 1459 1461 1463 1466 1468 1470 1472 1476 1479 1483 1488 1491 1494 1498 1502 1506 1509 1513 1516 1518 1521 1523 1525 1528
1492 1492 1490 1482 1475 1474 1469 1462 1456 1452 1450 1447 1445 1444 1442 1441 1440 1441 1442 1443 1445 1447 1449 1451 1454 1456 1458 1460 1461 1463 1466 1468 1471 1474 1479 1483 1487 1490 1494 1497 1501 1505 1508 1511 1514 1517 1519 1522 1524
1489 1489 1485 1478 1472 1470 1465 1459 1453 1449 1446 1444 1442 1441 1439 1438 1437 1438 1439 1439 1441 1443 1445 1447 1450 1452 1454 1456 1458 1460 1462 1464 1466 1470 1474 1479 1483 1486 1489 1493 1497 1501 1504 1508 1511 1513 1515 1518 1520
1485 1485 1482 1478 1471 1467 1466 1459 1453 1448 1444 1442 1441 1439 1438 1437 1436 1437 1437 1437 1438 1440 1442 1444 1446 1448 1450 1452 1454 1456 1458 1460 1463 1465 1469 1474 1478 1482 1486 1489 1493 1496 1500 1503 1506 1508 1511 1513 1515
1481 1476 1475 1473 1475 1472 1469 1465 1456 1451 1445 1442 1441 1439 1438 1436 1435 1435 1435 1435 1436 1438 1440 1442 1444 1446 1447 1449 1450 1452 1453 1455 1458 1461 1465 1470 1474 1478 1481 1485 1488 1492 1495 1498 1501 1504 1506 1508 1510
1476 1472 1472 1471 1473 1472 1468 1468 1461 1454 1450 1447 1444 1441 1439 1436 1435 1435 1435 1435 1436 1437 1439 1440 1443 1444 1445 1446 1447 1449 1451 1453 1455 1458 1462 1465 1469 1473 1477 1481 1484 1487 1491 1494 1496 1499 1501 1503 1505
1472 1472 1471 1470 1472 1472 1468 1468 1465 1460 1457 1452 1447 1444 1440 1438 1437 1436 1436 1436 1437 1438 1439 1440 1441 1442 1444 1445 1446 1447 1449 1450 1453 1455 1459 1462 1465 1469 1473 1477 1480 1483 1486 1488 1491 1494 1496 1497 1499
1472 1475 1477 1474 1474 1471 1467 1466 1468 1464 1460 1456 1452 1449 1445 1442 1440 1439 1438 1438 1439 1439 1439 1440 1441 1442 1443 1444 1445 1447 1448 1449 1451 1453 1456 1459 1462 1466 1469 1472 1475 1478 1481 1484 1486 1488 1490 1491 1493
1471 1474 1477 1474 1471 1469 1467 1467 1469 1466 1462 1459 1456 1453 1449 1447 1445 1444 1443 1442 1442 1442 1442 1442 1442 1442 1444 1444 1445 1446 1446 1448 1450 1452 1454 1457 1460 1463 1466 1469 1471 1474 1476 1479 1481 1482 1484 1485 1487
1469 1470 1470 1471 1470 1471 1470 1470 1469 1467 1464 1462 1460 1457 1455 1453 1451 1450 1448 1447 1446 1445 1445 1445 1445 1445 1445 1446 1446 1446 1447 1448 1450 1451 1453 1456 1458 1461 1463 1465 1467 1469 1472 1473 1475 1476 1478 1479 1481
1468 1467 1470 1469 1467 1467 1470 1472 1472 1470 1468 1466 1464 1463 1461 1459 1457 1455 1453 1452 1451 1450 1449 1448 1447 1447 1447 1448 1448 1448 1448 1449 1450 1451 1452 1454 1456 1458 1460 1462 1463 1465 1467 1468 1469 1471 1472 1474 1474
1467 1466 1466 1467 1466 1468 1471 1476 1472 1472 1471 1470 1469 1467 1465 1463 1461 1459 1458 1457 1456 1454 1453 1452 1451 1451 1450 1451 1450 1450 1450 1450 1451 1451 1452 1453 1454 1456 1457 1458 1459 1461 1462 1463 1464 1465 1466 1467 1468
1464 1464 1465 1467 1470 1471 1475 1480 1474 1473 1473 1472 1472 1470 1469 1467 1466 1464 1462 1461 1459 1458 1457 1456 1456 1455 1454 1454 1453 1453 1452 1452 1452 1452 1452 1452 1453 1453 1454 1455 1455 1456 1457 1458 1458 1459 1459 1460 1461